www.pogodaiklimat.ru

Погода и климат >> Архив погоды >> Россия >> Сахалинская область >> Оха


ПОГОДА в Оха

  • Прогноз погоды в Оха
  • Монитор погоды в Оха
  • Климат города

АРХИВ ПОГОДЫ в Оха

Время (UTC), дата Ветер
(напр.,м/с)
 
Видим.   Явления Облачность Т
(С)
Тd
(С)
f
(%)
Тe
(С)
Тes
(С)
Комфортность P
(гПа)
Po
(гПа)
Тmin
(С)
Tmax
(С)
R
(мм)
R24
(мм)
S
(см)
00 18.05 З 3-4
{5}
20 км 8/3 300 м
[Cb cap Ac trans]
+11.3 +0.9 49 +10 +14 1010.2 1005.7
06 18.05 СЗ 2-4
{8}
20 км 1/1 600 м
[Cu hum]
+15.3 -1.4 32 +15 +23 1009.3 1004.8
09 18.05 В 3-4
{6}
20 км 3/0
[Ci fib]
+11.4 +1.2 49 +10 +11 1010.4 1005.8 +15.5
12 18.05 Ю 1-2
{5}
20 км 3/0
[Ci fib]
+4.6 +0.7 76 +3 +3 1011.1 1006.4
18 18.05 З 1-2
{2}
20 км 8/0
[Ci sp]
+0.2 -0.3 96 -2 -2 1012.2 1007.4
21 18.05 З 1-1
{4}
20 км в посл. час ливневой дождь 10/10 480 м
[Cb cap]
+2.1 -0.1 85 0 0 1014.0 1009.3 -2.0 0.0 0
00 19.05 штиль 0
{6}
20 км слабый ливневой дождь 10/6 420 м
[Cb cap Ac und]
+2.5 +2.5 100 +1 +3 1016.3 1011.5
06 19.05 В 2-3
{6}
20 км в посл. час ливневой дождь 8/4 300 м
[Cb cap Ac trans]
+6.1 +3.6 84 +4 +7 1019.3 1014.6
09 19.05 СВ 1-2
{5}
20 км 3/0
[Ci fib]
+7.8 +2.1 67 +7 +8 1020.1 1015.4 +7.8 9
12 19.05 штиль 0
{2}
20 км 3/0
[Ci fib]
+0.6 +0.2 97 -1 -1 1021.8 1017.0
18 19.05 ЮВ 2-3
{3}
20 км ясно -1.0 -1.1 99 -5 -5 1022.6 1017.7
21 19.05 ЮВ 4-6
{6}
20 км 3/0
[Ci fib]
+3.5 +0.3 80 -1 +1 1021.7 1017.0 -2.8 0
00 20.05 ЮВ 5-8
{9}
20 км 4/0
[Ci fib]
+12.6 -2.4 35 +11 +17 1021.1 1016.5
06 20.05 ЮВ 8-12
{17}
20 км пыльный позёмок 8/0
[Ci sp]
+12.3 -4.3 31 +10 +11 1017.9 1013.3
09 20.05 ЮВ 6-9
{13}
20 км 9/0
[Ci sp]
+6.5 -0.6 60 +2 +3 1017.7 1013.0 +14.9
12 20.05 ЮВ 5-7
{10}
20 км 8/0
[Ac trans Ci sp]
+3.5 -0.2 77 -2 -2 1017.4 1012.6
18 20.05 ЮВ 3-5
{5}
20 км 8/3 600 м
[Cb cap Ac trans Ci sp]
+1.3 -0.3 89 -3 -3 1016.0 1011.2
21 20.05 ЮВ 2-3
{5}
20 км в посл. час ливневой дождь 10/6 450 м
[Cb cap Ac und]
+1.6 +1.3 98 -2 -2 1016.6 1011.8 +1.1 0.4 0
00 21.05 штиль 0
{3}
20 км в посл. час ливневой дождь 9/9 450 м
[Cb cap]
+3.6 +3.4 99 +2 +4 1016.4 1011.7
06 21.05 СЗ 4-7
{7}
20 км 6/4 600 м
[Cb cap Ac trans]
+9.4 +2.8 63 +7 +10 1016.2 1011.6
09 21.05 СЗ 2-4
{7}
20 км 4/0
[Ci fib]
+5.9 +1.2 72 +4 +5 1015.5 1010.8 +9.6 0.0
12 21.05 З 1-2
{4}
20 км 5/0
[Ci fib]
+0.5 -0.1 96 -2 -2 1015.0 1010.2
15 21.05 штиль 0
{3}
500 м туман ясно -1.4 -1.4 100 -3 -3 1013.4 1008.5
18 21.05 ЮВ 1-1
{3}
20 км местами туман поземный 4/0
[Ci fib]
-2.9 -2.9 100 -5 -5 1010.9 1006.1
21 21.05 Ю 2-5
{5}
20 км 3/0
[Ci fib]
+6.0 +1.1 71 +4 +7 1008.6 1004.0 -3.7 0
00 22.05 ЮЗ 4-6
{7}
20 км 8/0
[Ci sp]
+16.1 -0.2 33 +16 +22 1005.5 1001.0
06 22.05 СЗ 3-5
{9}
20 км 9/0
[Ac trans]
+15.4 +2.4 42 +15 +18 1002.7 998.2
09 22.05 СВ 2-4
{5}
20 км 9/4 300 м
[Sc Ac trans]
+7.4 -0.5 57 +6 +6 1004.1 999.5 +18.1
12 22.05 ЮВ 1-2
{4}
20 км 9/3 300 м
[Sc Ac trans]
+5.1 -0.1 69 +4 +4 1005.1 1000.5
15 22.05 штиль 0
{4}
20 км 9/3 300 м
[Sc Ac trans]
+2.8 +0.1 82 +2 +2 1005.5 1000.8
18 22.05 ЮВ 1-2
{4}
20 км 8/3 300 м
[Sc Ac trans]
+2.6 -1.6 74 +1 +1 1005.6 1000.9
21 22.05 В 2-5
{5}
20 км 9/0
[Ac trans Cs]
+7.6 -2.4 49 +6 +8 1006.7 1002.1 +1.5 0
00 23.05 В 4-7
{8}
20 км 9/0
[Cs]
+12.1 -4.6 31 +11 +17 1006.9 1002.3
06 23.05 ЮВ 6-9
{10}
20 км 8/4 600 м
[Sc Ci sp]
+11.4 -1.8 40 +9 +11 1006.4 1001.9
09 23.05 ЮВ 6-8
{11}
20 км 9/3 300 м
[Cb cap Ac trans Ci sp]
+7.3 -2.1 51 +3 +4 1006.5 1001.8 +14.7
12 23.05 ЮВ 4-6
{8}
20 км 8/4 300 м
[Cb cap Ac trans]
+5.4 -1.5 61 +2 +2 1007.1 1002.4
18 23.05 В 4-7
{7}
20 км {ливн. осадки} 9/5 450 м
[Cb cap Ac trans]
+3.2 0.0 80 -1 -1 1005.6 1000.9
21 23.05 В 4-8
{8}
10 км слабый ливневой снег 9/9 420 м
[Cb cap]
+2.2 +1.5 95 -3 -3 1005.4 1000.7 +2.2 1 0
00 24.05 В 5-8
{9}
20 км {ливн. осадки} 9/4 300 м
[Cb cap Ac trans]
+3.3 +1.4 87 -2 0 1005.7 1001.0
06 24.05 В 4-7
{9}
20 км 9/9 330 м
[Cb cap]
+2.9 +0.7 85 -2 -1 1006.0 1001.3
09 24.05 В 3-5
{8}
20 км 10/10 120 м
[St]
+1.3 +0.6 95 -3 -3 1007.2 1002.4 +5.6 0.4
12 24.05 СВ 3-4
{5}
4000 м слабый ливневой снег 10/10 120 м
[Cb cap]
+0.3 +0.2 99 -5 -5 1008.6 1003.8
18 24.05 В 4-6
{6}
500 м туман {ливн. осадки} ?/? +0.4 +0.4 100 -5 -5 1008.9 1004.2
21 24.05 СВ 2-4
{6}
500 м туман ?/? +0.7 +0.7 100 -3 -3 1009.9 1005.2 +0.2 2 0

 

Местоположение метеостанции Оха (Сахалинская область, Россия): широта 53.50 долгота 142.90 высота над уровнем моря 37 м.

В архиве по умолчанию представлена погода в Оха за последнюю неделю. Архивные данные за месяц целиком и за предыдущие месяцы, начиная с января 2011 года, Вы можете получить, выбрав интересующий диапазон дат из раскрывающегося списка и нажав кнопку "Ввод!".


*Определитесь, кто Вы:
робот инопланетянин человек

Внимание! Время в таблицах - всемирное. Для получения местного времени необходимо прибавить поправку, которая в Оха равна 11 ч.

Смотрите также архив погоды в соседних городах и на ближайших метеорологических станциях:

Погода в Одопту (Сахалинская область, Россия) (23 км)
Погода в Москальво (Сахалинская область, Россия) (28 км)
Погода в Ныврово (Сахалинская область, Россия) (94 км)
Погода в Байдукове (Хабаровский край, Россия) (102 км)
Погода в Вал (Сахалинская область, Россия) (130 км)
Погода в Джаоре (Хабаровский край, Россия) (146 км)
Погода в Николаевск-на-Амуре (Хабаровский край, Россия) (151 км)
Погода в Погибях (Сахалинская область, Россия) (167 км)
Погода в Ногликах (Сахалинская область, Россия) (176 км)
Погода в Литке (Хабаровский край, Россия) (178 км)

Пояснения к столбцам:

Ветер - указаны скорость ветра в м/с - средняя за 10 мин, порывы в срок и между сроками (в фигурных скобках) и направление, откуда дует ветер: С - северный, СВ - северо-восточный, В - восточный, ЮВ - юго-восточный, Ю - южный, ЮЗ - юго-западный, З - западный, СЗ - северо-западный.
Видимость - горизонтальная дальность видимости в метрах или километрах. При видимости от 1 до 10 км при отсутствии осадков обычно наблюдается дымка, при ухудшении видимости до 1 км и менее - туман. В сухую погоду видимость может ухудшаться дымом, пылью или мглою.
Явления - указаны атмосферные явления, наблюдавшиеся в срок или в последний час перед сроком; фигурными скобками обозначены явления, наблюдавшиеся между сроками (за 1-3 часа до срока); квадратными скобками обозначены град или гололедные отложения с указанием их диаметра в мм.
Облачность - указаны через наклонную черту общая и нижняя облачность в баллах и высота нижней границы облаков в метрах; квадратными скобками обозначены формы облаков: Ci - перистые, Cs - перисто-слоистые, Cc - перисто-кучевые, Ac - высококучевые, As - высокослоистые, Sc - слоисто-кучевые, Ns - слоисто-дождевые, Cu - кучевые, Cb - кучево-дождевые. Подробнее классификацию облаков см. в Атласе облаков (PDF).
T - Температура воздуха - температура, измеренная на высоте 2 м над землей.
Td - Температура точки росы - температура, при понижении до которой содержащийся в воздухе водяной пар достигнет насыщения.
f - Относительная влажность воздуха - влажноcть воздуха, измеренная на высоте 2 м над землей.
Te - Эффективная температура - температура, которую ощущает одетый по сезону человек в тени. Характеристика душности погоды. При расчете учитывается влияние влажности воздуха и скорости ветра на теплоощущения человека.
Tes - Эффективная температура на солнце - температура, которую ощущает человек, с поправкой на солнечный нагрев. Характеристика знойности погоды. Зависит от высоты солнца над горизонтом, облачности и скорости ветра. Ночью, в пасмурную погоду, а также при ветре 12 м/с и более поправка равна нулю.
P - Атмосферное давление - приведенное к уровню моря атмосферное давление.
Po - Атмосферное давление - измеренное на уровне метеостанции атмосферное давление.
Tmin - Минимальная температура - минимум температуры воздуха на высоте 2 м над землей.
Tmax - Максимальная температура - максимум температуры воздуха на высоте 2 м над землей.
R - Количество осадков - Количество выпавших осадков за период времени, мм. При наведении курсора мыши на число - период времени, за который выпало указанное количество осадков.
R24 - Количество осадков - Количество выпавших осадков за 24 часа, мм.
S - Снежный покров - Высота снежного покрова, см. При наведении курсора мыши на число - состояние снежного покрова и степень покрытия местности в баллах.